Regional Weather Roundup
Issued by NWS

Home | Current Version | Previous Version | Graphics & Text | Print | Product List | Glossary On
Versions: 1 2 3 4 5 6 7 8 9 10 11 12 13 14 15 16 17 18 19 20 21 22 23 24 25 26 27 28 29 30 31 32 33 34 35 36 37 38 39 40 41 42 43 44 45 46 47 48 49 50
000
ASUS43 KOAX 171710
RWRNE

WEATHER ROUNDUP FOR NEBRASKA
NATIONAL WEATHER SERVICE OMAHA NE
1100 AM CST TUE JAN 17 2017

NOTES: SATELLITE DATA IS BEING USED TO AUGMENT CLOUD COVER ABOVE
       12000 FEET.
       "FAIR" INDICATES FEW OR NO CLOUDS BELOW 12,000 FEET WITH NO
       SIGNIFICANT WEATHER AND/OR OBSTRUCTIONS TO VISIBILITY.

  * THESE STATIONS DO NOT REPORT WEATHER SUCH AS RAIN...SNOW OR FOG.

NEZ001>004-019>022-054>056-171800-
NEBRASKA PANHANDLE

CITY           SKY/WX    TMP DP  RH WIND       PRES   REMARKS
SCOTTSBLUFF    CLOUDY    27  16  63 NW3       30.04F
ALLIANCE       CLOUDY    32  21  64 SW8       30.02F WCI  25
CHADRON        CLOUDY    16   7  67 CALM      30.01R
KIMBALL        SUNNY     32  24  71 W8        30.05R WCI  25
SIDNEY         SUNNY     34  21  59 SW10      30.06F WCI  26
$$

NEZ057>060-069>072-079>082-171800-
SOUTHWEST NEBRASKA

CITY           SKY/WX    TMP DP  RH WIND       PRES   REMARKS
NORTH PLATTE   SUNNY     33  24  69 W6        30.10S WCI  28
IMPERIAL       SUNNY     30  22  72 W6        30.10S WCI  24
LEXINGTON      SUNNY     32  24  73 NW10      30.11S WCI  24
MCCOOK         SUNNY     32  25  75 W7        30.11F WCI  26
OGALLALA       SUNNY     30  22  71 W8        30.09F WCI  22
$$

NEZ005>010-023>029-035>040-094-171800-
NORTH CENTRAL NEBRASKA

CITY           SKY/WX    TMP DP  RH WIND       PRES   REMARKS
VALENTINE      CLOUDY    31  18  58 SW9       30.02F WCI  23
AINSWORTH      SUNNY     34  25  70 SW10      30.03S WCI  26
BROKEN BOW     SUNNY     30  23  75 W7        30.07S WCI  23
O`NEILL        SUNNY     30  26  84 W6        30.05S WCI  24
ORD            SUNNY     29  22  75 CALM      30.07F
THEDFORD       SUNNY     37  23  58 SW7       30.05S WCI  31
$$

NEZ041-046>049-061>064-073>077-083>087-171800-
SOUTH CENTRAL NEBRASKA

CITY           SKY/WX    TMP DP  RH WIND       PRES   REMARKS
GRAND ISLAND   SUNNY     29  26  89 NW9       30.11S WCI  20
AURORA         SUNNY     29  25  88 CALM      30.11S
HASTINGS       SUNNY     30  25  81 NW8       30.12R WCI  22
HEBRON         SUNNY     30  25  84 NW5       30.13F WCI  25
HOLDREGE       SUNNY     32  28  84 NW3       30.10R
KEARNEY *      SUNNY     30  25  80 CALM      30.11S
YORK           SUNNY     28  25  86 MISG      30.11S
$$

NEZ011>018-030>034-042>045-171800-
NORTHEAST NEBRASKA

CITY           SKY/WX    TMP DP  RH WIND       PRES   REMARKS
NORFOLK        SUNNY     24  20  84 VRB5      30.07F WCI  18
ALBION         SUNNY     27  23  84 CALM      30.08S FOG
BLAIR          CLOUDY    26  24  94 W5        30.09S FOG     WCI  20
FREMONT        SUNNY     28  23  84 W8        30.11S WCI  19
TEKAMAH        CLOUDY    25  20  81 W7        30.11S WCI  17
WAYNE          SUNNY     24  21  87 CALM      30.08S
$$

NEZ050>053-065>068-078-088>093-171800-
SOUTHEAST NEBRASKA

CITY           SKY/WX    TMP DP  RH WIND       PRES   REMARKS
LINCOLN        SUNNY     31  24  75 W7        30.14R WCI  24
OMAHA EPPLEY   CLOUDY    28  23  81 NW8       30.11R WCI  20
BEATRICE       SUNNY     31  26  83 NW5       30.12S WCI  26
FALLS CITY     CLOUDY    33  31  92 W13       30.11R WCI  24
NEBRASKA CITY  CLOUDY    29  29 100 NW9       30.11R FOG     WCI  21
PLATTSMOUTH    CLOUDY    28  25  87 NW9       30.10R FOG     WCI  19
$$

NEZ044-045-051>053-067-171800-
OMAHA AREA

CITY           SKY/WX    TMP DP  RH WIND       PRES   REMARKS
OMAHA EPPLEY   CLOUDY    28  23  81 NW8       30.11R WCI  20
BLAIR          CLOUDY    26  24  94 W5        30.09S FOG     WCI  20
FREMONT        SUNNY     28  23  84 W8        30.11S WCI  19
MILLARD        CLOUDY    29  25  85 W5        30.11S WCI  24
OFFUTT AFB     CLOUDY    28  28  99 NW8       30.11R WCI  20
PLATTSMOUTH    CLOUDY    28  25  87 NW9       30.10R FOG     WCI  19
WAHOO          FAIR      28  22  80 NW7       30.11S WCI  21
$$




USA.gov is the U.S. government's official web portal to all federal, state and local government web resources and services.